Seattle Boeing, WA

4:03 AM PDT on April 07, 2020 (GMT -0700)
Boeing Field-King County International

Weather History for KBFI - October, 2019

Change the Weather History Date:

Saturday, October 12, 2019

  Actual Average Record
Temperature  
Mean Temperature 50 °F -  
Max Temperature 57 °F 59 °F 70 °F (1964)
Min Temperature 43 °F 46 °F 39 °F (2016)
Degree Days  
Heating Degree Days 15    
Moisture  
Dew Point 39 °F    
Average Humidity 66    
Maximum Humidity 76    
Minimum Humidity 47    
Precipitation  
Precipitation 0.00 in - - ()
Sea Level Pressure  
Sea Level Pressure 29.99 in    
Wind  
Wind Speed 1 mph (NW)    
Max Wind Speed 7 mph    
Max Gust Speed -    
Visibility 10 miles    
Events      
Averages and records for this station are not official NWS values.
T = Trace of Precipitation, MM = Missing Value Source: NWS Daily Summary

Daily Weather History Graph

Daily Weather History Graph

Search for Another Location

Airport or City:

Astronomy

Oct. 12, 2019 Rise Set
Actual Time 7:23 AM PDT 6:27 PM PDT
Civil Twilight 6:52 AM PDT 6:57 PM PDT
Nautical Twilight 6:16 AM PDT 7:33 PM PDT
Astronomical Twilight 5:41 AM PDT 8:09 PM PDT
Moon 6:33 PM PDT (10/12) 5:55 AM PDT (10/12)
Length of Visible Light 12h 05m
Length of Day
11h 03m
Waxing Gibbous, 99% of the Moon is Illuminated
Oct 12
Waxing Gibbous
Oct 13
Full
Oct 21
Last Quarter
Oct 27
New
Nov 4
First Quarter

Hourly Weather History & Observations

Time (PDT) Temp. Dew Point Humidity Pressure Visibility Wind Dir Wind Speed Gust Speed Precip Events Conditions
12:53 AM 45.0 °F 35.1 °F 68% 30.05 in 10.0 mi Calm Calm - N/A   Clear
1:53 AM 44.1 °F 34.0 °F 68% 30.04 in 10.0 mi Calm Calm - N/A   Clear
2:53 AM 44.1 °F 35.1 °F 71% 30.04 in 10.0 mi Calm Calm - N/A   Clear
3:53 AM 43.0 °F 35.1 °F 74% 30.02 in 10.0 mi Calm Calm - N/A   Clear
4:53 AM 43.0 °F 35.1 °F 74% 30.01 in 10.0 mi Calm Calm - N/A   Clear
5:53 AM 45.0 °F 36.0 °F 71% 30.01 in 10.0 mi Calm Calm - N/A   Clear
6:53 AM 44.1 °F 37.0 °F 76% 30.02 in 10.0 mi Calm Calm - N/A   Clear
7:53 AM 45.0 °F 37.9 °F 76% 30.01 in 10.0 mi Calm Calm - N/A   Overcast
8:53 AM 48.0 °F 39.9 °F 74% 30.02 in 10.0 mi Calm Calm - N/A   Mostly Cloudy
9:53 AM 51.1 °F 42.1 °F 71% 30.02 in 10.0 mi Calm Calm - N/A   Mostly Cloudy
10:53 AM 54.0 °F 37.9 °F 55% 30.02 in 10.0 mi Calm Calm - N/A   Mostly Cloudy
11:53 AM 54.0 °F 35.1 °F 49% 30.00 in 10.0 mi Calm Calm - N/A   Mostly Cloudy
12:53 PM 55.0 °F 39.0 °F 55% 30.00 in 10.0 mi NNW 5.8 mph - N/A   Mostly Cloudy
1:53 PM 57.9 °F 37.9 °F 47% 29.97 in 10.0 mi WNW 4.6 mph - N/A   Mostly Cloudy
2:53 PM 57.0 °F 39.9 °F 53% 29.96 in 10.0 mi NW 3.5 mph - N/A   Mostly Cloudy
3:53 PM 57.0 °F 37.0 °F 47% 29.95 in 10.0 mi NW 3.5 mph - N/A   Mostly Cloudy
4:53 PM 55.9 °F 43.0 °F 62% 29.94 in 10.0 mi NW 6.9 mph - N/A   Mostly Cloudy
5:53 PM 55.0 °F 45.0 °F 69% 29.95 in 10.0 mi NW 4.6 mph - N/A   Overcast
6:53 PM 55.0 °F 44.1 °F 67% 29.95 in 10.0 mi WNW 3.5 mph - N/A   Overcast
7:53 PM 54.0 °F 44.1 °F 69% 29.95 in 10.0 mi NW 3.5 mph - N/A   Overcast
8:53 PM 54.0 °F 45.0 °F 72% 29.95 in 10.0 mi Calm Calm - N/A   Overcast
9:53 PM 54.0 °F 43.0 °F 66% 29.95 in 10.0 mi WNW 3.5 mph - N/A   Overcast
10:53 PM 53.1 °F 45.0 °F 74% 29.95 in 10.0 mi WNW 3.5 mph - N/A   Overcast
11:53 PM 53.1 °F 43.0 °F 69% 29.94 in 10.0 mi NW 4.6 mph - N/A   Overcast